Madison, SD

2:05 AM CST on December 13, 2019 (GMT -0600)
Madison Municipal

Weather History for KMDS - October, 2019

Change the Weather History Date:

Monday, October 7, 2019

  Actual Average Record
Temperature  
Mean Temperature 52 °F -  
Max Temperature 64 °F 61 °F 78 °F (2011)
Min Temperature 39 °F 38 °F 32 °F (2016)
Degree Days  
Heating Degree Days 14    
Growing Degree Days 2 (Base 50)    
Moisture  
Dew Point 40 °F    
Average Humidity 67    
Maximum Humidity 100    
Minimum Humidity 37    
Precipitation  
Precipitation 0.00 in - - ()
Sea Level Pressure  
Sea Level Pressure 30.11 in    
Wind  
Wind Speed 8 mph ()    
Max Wind Speed 15 mph    
Max Gust Speed 18 mph    
Visibility 10.0 miles    
Events      
Averages and records for this station are not official NWS values.
T = Trace of Precipitation, MM = Missing Value Source: Averaged Metar Reports

Daily Weather History Graph

Daily Weather History Graph

Search for Another Location

Airport or City:

Astronomy

Oct. 07, 2019 Rise Set
Actual Time 7:32 AM CDT 6:58 PM CDT
Civil Twilight 7:04 AM CDT 7:27 PM CDT
Nautical Twilight 6:30 AM CDT 8:00 PM CDT
Astronomical Twilight 5:57 AM CDT 8:34 PM CDT
Moon 4:35 PM CDT (10/7) 1:11 AM CDT (10/7)
Length of Visible Light 12h 23m
Length of Day
11h 25m
Waxing Gibbous, 69% of the Moon is Illuminated
Oct 7
Waxing Gibbous
Oct 13
Full
Oct 21
Last Quarter
Oct 27
New
Nov 4
First Quarter

Hourly Weather History & Observations

Time (CDT) Temp. Windchill Dew Point Humidity Pressure Visibility Wind Dir Wind Speed Gust Speed Precip Events Conditions
12:00 AM 48.2 °F - 37.4 °F 66% 30.16 in 10.0 mi West 10.4 mph - N/A   Clear
12:20 AM 48.2 °F - 37.4 °F 66% 30.16 in 10.0 mi West 10.4 mph - N/A   Clear
12:35 AM 46.4 °F 41.9 °F 37.4 °F 71% 30.17 in 10.0 mi WNW 9.2 mph - N/A   Clear
12:40 AM 46.4 °F 41.5 °F 37.4 °F 71% 30.17 in 10.0 mi West 10.4 mph - N/A   Clear
12:55 AM 46.4 °F 41.9 °F 37.4 °F 71% 30.17 in 10.0 mi WNW 9.2 mph - N/A   Clear
1:00 AM 46.4 °F 41.9 °F 37.4 °F 71% 30.17 in 10.0 mi WNW 9.2 mph - N/A   Clear
1:15 AM 44.6 °F 39.7 °F 39.2 °F 81% 30.17 in 10.0 mi WNW 9.2 mph - N/A   Clear
1:20 AM 44.6 °F 40.2 °F 39.2 °F 81% 30.17 in 10.0 mi WNW 8.1 mph - N/A   Clear
1:35 AM 44.6 °F 40.2 °F 39.2 °F 81% 30.17 in 10.0 mi WNW 8.1 mph - N/A   Clear
2:00 AM 44.6 °F 40.2 °F 39.2 °F 81% 30.17 in 10.0 mi West 8.1 mph - N/A   Clear
2:15 AM 42.8 °F 38.6 °F 39.2 °F 87% 30.17 in 10.0 mi WNW 6.9 mph - N/A   Clear
2:35 AM 42.8 °F 38.6 °F 39.2 °F 87% 30.18 in 10.0 mi West 6.9 mph - N/A   Clear
2:40 AM 42.8 °F 38.0 °F 39.2 °F 87% 30.18 in 10.0 mi West 8.1 mph - N/A   Clear
2:55 AM 42.8 °F 38.0 °F 39.2 °F 87% 30.18 in 10.0 mi West 8.1 mph - N/A   Clear
3:15 AM 42.8 °F 38.6 °F 39.2 °F 87% 30.18 in 10.0 mi West 6.9 mph - N/A   Clear
3:20 AM 42.8 °F 38.0 °F 39.2 °F 87% 30.18 in 10.0 mi West 8.1 mph - N/A   Clear
3:35 AM 42.8 °F 39.3 °F 39.2 °F 87% 30.18 in 10.0 mi West 5.8 mph - N/A   Clear
3:40 AM 41.0 °F 36.4 °F 39.2 °F 93% 30.18 in 10.0 mi West 6.9 mph - N/A   Clear
3:55 AM 41.0 °F 37.1 °F 39.2 °F 93% 30.18 in 10.0 mi West 5.8 mph - N/A   Clear
4:15 AM 41.0 °F 37.1 °F 39.2 °F 93% 30.19 in 10.0 mi WSW 5.8 mph - N/A   Clear
4:35 AM 39.2 °F 34.2 °F 39.2 °F 100% 30.19 in 10.0 mi West 6.9 mph - N/A   Clear
4:55 AM 39.2 °F 33.0 °F 39.2 °F 100% 30.19 in 10.0 mi WSW 9.2 mph - N/A   Clear
5:00 AM 39.2 °F 33.0 °F 39.2 °F 100% 30.19 in 10.0 mi WSW 9.2 mph - N/A   Clear
5:15 AM 41.0 °F 35.8 °F 41.0 °F 100% 30.19 in 10.0 mi West 8.1 mph - N/A   Clear
5:35 AM 39.2 °F 33.6 °F 39.2 °F 100% 30.19 in 10.0 mi WSW 8.1 mph - N/A   Clear
5:40 AM 39.2 °F 33.6 °F 39.2 °F 100% 30.19 in 10.0 mi WSW 8.1 mph - N/A   Clear
5:55 AM 41.0 °F 35.2 °F 41.0 °F 100% 30.19 in 10.0 mi WSW 9.2 mph - N/A   Clear
6:00 AM 41.0 °F 35.2 °F 41.0 °F 100% 30.19 in 10.0 mi WSW 9.2 mph - N/A   Clear
6:15 AM 41.0 °F 34.3 °F 41.0 °F 100% 30.20 in 10.0 mi WSW 11.5 mph - N/A   Clear
6:35 AM 39.2 °F 33.0 °F 39.2 °F 100% 30.20 in 10.0 mi WSW 9.2 mph - N/A   Clear
6:40 AM 41.0 °F 35.8 °F 41.0 °F 100% 30.20 in 10.0 mi WSW 8.1 mph - N/A   Clear
6:55 AM 39.2 °F 34.2 °F 39.2 °F 100% 30.20 in 10.0 mi West 6.9 mph - N/A   Clear
7:00 AM 39.2 °F 35.0 °F 39.2 °F 100% 30.20 in 10.0 mi West 5.8 mph - N/A   Clear
7:15 AM 39.2 °F 34.2 °F 39.2 °F 100% 30.20 in 10.0 mi WSW 6.9 mph - N/A   Clear
7:20 AM 39.2 °F 35.0 °F 39.2 °F 100% 30.20 in 10.0 mi West 5.8 mph - N/A   Clear
7:35 AM 39.2 °F 34.2 °F 39.2 °F 100% 30.20 in 10.0 mi West 6.9 mph - N/A   Clear
7:55 AM 41.0 °F 36.4 °F 41.0 °F 100% 30.20 in 10.0 mi WSW 6.9 mph - N/A   Clear
8:00 AM 41.0 °F 36.4 °F 41.0 °F 100% 30.20 in 10.0 mi WSW 6.9 mph - N/A   Clear
8:15 AM 41.0 °F 35.8 °F 41.0 °F 100% 30.20 in 10.0 mi WSW 8.1 mph - N/A   Clear
8:35 AM 42.8 °F 40.1 °F 41.0 °F 93% 30.20 in 10.0 mi WSW 4.6 mph - N/A   Clear
8:40 AM 44.6 °F 42.2 °F 41.0 °F 87% 30.20 in 10.0 mi WSW 4.6 mph - N/A   Clear
8:55 AM 46.4 °F 45.2 °F 41.0 °F 81% 30.20 in 10.0 mi WSW 3.5 mph - N/A   Clear
9:15 AM 48.2 °F - 41.0 °F 76% 30.20 in 10.0 mi Calm Calm - N/A   Clear
9:35 AM 50.0 °F - 41.0 °F 71% 30.20 in 10.0 mi WSW 3.5 mph - N/A   Clear
9:40 AM 51.8 °F - 41.0 °F 67% 30.20 in 10.0 mi WSW 4.6 mph - N/A   Clear
9:55 AM 53.6 °F - 41.0 °F 62% 30.20 in 10.0 mi SW 4.6 mph - N/A   Clear
10:15 AM 55.4 °F - 41.0 °F 58% 30.20 in 10.0 mi SW 5.8 mph - N/A   Clear
10:35 AM 55.4 °F - 39.2 °F 54% 30.20 in 10.0 mi SW 8.1 mph - N/A   Clear
10:55 AM 57.2 °F - 39.2 °F 51% 30.20 in 10.0 mi SW 9.2 mph - N/A   Clear
11:15 AM 57.2 °F - 37.4 °F 48% 30.19 in 10.0 mi SW 9.2 mph - N/A   Clear
11:20 AM 59.0 °F - 39.2 °F 48% 30.19 in 10.0 mi SW 8.1 mph - N/A   Clear
11:35 AM 59.0 °F - 39.2 °F 48% 30.18 in 10.0 mi SW 10.4 mph 16.1 mph N/A   Clear
11:40 AM 59.0 °F - 39.2 °F 48% 30.18 in 10.0 mi SW 12.7 mph - N/A   Clear
11:55 AM 59.0 °F - 37.4 °F 45% 30.18 in 10.0 mi WSW 12.7 mph - N/A   Clear
12:15 PM 60.8 °F - 39.2 °F 45% 30.17 in 10.0 mi WSW 11.5 mph - N/A   Clear
12:35 PM 62.6 °F - 37.4 °F 39% 30.17 in 10.0 mi SW 12.7 mph - N/A   Clear
12:40 PM 62.6 °F - 39.2 °F 42% 30.17 in 10.0 mi SSW 11.5 mph - N/A   Clear
12:55 PM 62.6 °F - 39.2 °F 42% 30.16 in 10.0 mi WSW 12.7 mph - N/A   Clear
1:15 PM 62.6 °F - 39.2 °F 42% 30.15 in 10.0 mi SSW 8.1 mph - N/A   Clear
1:20 PM 62.6 °F - 39.2 °F 42% 30.15 in 10.0 mi SW 9.2 mph - N/A   Clear
1:35 PM 64.4 °F - 37.4 °F 37% 30.15 in 10.0 mi SSW 9.2 mph - N/A   Clear
1:40 PM 62.6 °F - 37.4 °F 39% 30.14 in 10.0 mi SW 10.4 mph 16.1 mph N/A   Clear
1:55 PM 64.4 °F - 37.4 °F 37% 30.13 in 10.0 mi WSW 9.2 mph - N/A   Clear
2:15 PM 64.4 °F - 37.4 °F 37% 30.12 in 10.0 mi SSW 8.1 mph - N/A   Clear
2:20 PM 64.4 °F - 39.2 °F 40% 30.12 in 10.0 mi SSW 9.2 mph - N/A   Clear
2:35 PM 64.4 °F - 39.2 °F 40% 30.11 in 10.0 mi SSW 8.1 mph 16.1 mph N/A   Clear
2:40 PM 64.4 °F - 39.2 °F 40% 30.11 in 10.0 mi South 12.7 mph - N/A   Clear
2:55 PM 64.4 °F - 37.4 °F 37% 30.10 in 10.0 mi SSW 8.1 mph - N/A   Clear
3:15 PM 64.4 °F - 39.2 °F 40% 30.09 in 10.0 mi South 9.2 mph - N/A   Clear
3:35 PM 64.4 °F - 39.2 °F 40% 30.08 in 10.0 mi South 8.1 mph 17.3 mph N/A   Clear
3:40 PM 64.4 °F - 39.2 °F 40% 30.08 in 10.0 mi SSE 12.7 mph 17.3 mph N/A   Clear
3:55 PM 64.4 °F - 41.0 °F 42% 30.07 in 10.0 mi South 12.7 mph - N/A   Clear
4:00 PM 64.4 °F - 39.2 °F 40% 30.07 in 10.0 mi South 11.5 mph 17.3 mph N/A   Clear
4:15 PM 64.4 °F - 39.2 °F 40% 30.07 in 10.0 mi South 15.0 mph - N/A   Clear
4:20 PM 64.4 °F - 37.4 °F 37% 30.07 in 10.0 mi South 11.5 mph - N/A   Clear
4:35 PM 64.4 °F - 39.2 °F 40% 30.06 in 10.0 mi South 11.5 mph 18.4 mph N/A   Clear
4:55 PM 64.4 °F - 37.4 °F 37% 30.05 in 10.0 mi South 9.2 mph 18.4 mph N/A   Clear
5:15 PM 64.4 °F - 39.2 °F 40% 30.04 in 10.0 mi South 11.5 mph - N/A   Clear
5:35 PM 64.4 °F - 39.2 °F 40% 30.03 in 10.0 mi SSE 10.4 mph - N/A   Clear
5:55 PM 64.4 °F - 41.0 °F 42% 30.02 in 10.0 mi SSE 6.9 mph - N/A   Clear
6:15 PM 62.6 °F - 41.0 °F 45% 30.02 in 10.0 mi SE 6.9 mph - N/A   Clear
6:20 PM 62.6 °F - 41.0 °F 45% 30.02 in 10.0 mi SE 6.9 mph - N/A   Clear
6:35 PM 59.0 °F - 41.0 °F 51% 30.01 in 10.0 mi SE 5.8 mph - N/A   Clear
6:40 PM 59.0 °F - 41.0 °F 51% 30.01 in 10.0 mi SE 6.9 mph - N/A   Clear
6:55 PM 57.2 °F - 41.0 °F 55% 30.01 in 10.0 mi ESE 6.9 mph - N/A   Clear
7:00 PM 57.2 °F - 41.0 °F 55% 30.01 in 10.0 mi ESE 6.9 mph - N/A   Clear
7:15 PM 55.4 °F - 41.0 °F 58% 30.00 in 10.0 mi ESE 8.1 mph - N/A   Clear
7:20 PM 55.4 °F - 41.0 °F 58% 30.00 in 10.0 mi ESE 8.1 mph - N/A   Clear
7:35 PM 53.6 °F - 41.0 °F 62% 30.00 in 10.0 mi SE 8.1 mph - N/A   Clear
7:40 PM 53.6 °F - 41.0 °F 62% 29.99 in 10.0 mi SE 8.1 mph - N/A   Clear
7:55 PM 53.6 °F - 41.0 °F 62% 29.99 in 10.0 mi SE 8.1 mph - N/A   Clear
8:00 PM 53.6 °F - 39.2 °F 58% 29.99 in 10.0 mi SE 9.2 mph - N/A   Clear
8:15 PM 55.4 °F - 39.2 °F 54% 29.99 in 10.0 mi SSE 9.2 mph - N/A   Clear
8:35 PM 55.4 °F - 41.0 °F 58% 29.99 in 10.0 mi SSE 6.9 mph - N/A   Clear
8:40 PM 55.4 °F - 41.0 °F 58% 29.98 in 10.0 mi SSE 8.1 mph - N/A   Clear
8:55 PM 53.6 °F - 42.8 °F 67% 29.98 in 10.0 mi SSE 8.1 mph - N/A   Clear
9:15 PM 53.6 °F - 42.8 °F 67% 29.98 in 10.0 mi SSE 8.1 mph - N/A   Clear
9:35 PM 51.8 °F - 42.8 °F 71% 29.98 in 10.0 mi SSE 8.1 mph - N/A   Clear
9:40 PM 51.8 °F - 42.8 °F 71% 29.97 in 10.0 mi SSE 9.2 mph - N/A   Clear
9:55 PM 51.8 °F - 44.6 °F 76% 29.97 in 10.0 mi SSE 9.2 mph - N/A   Clear
10:00 PM 51.8 °F - 44.6 °F 76% 29.97 in 10.0 mi SSE 9.2 mph - N/A   Clear
10:15 PM 50.0 °F - 44.6 °F 82% 29.97 in 10.0 mi SSE 10.4 mph - N/A   Clear
10:20 PM 51.8 °F - 44.6 °F 76% 29.97 in 10.0 mi SSE 10.4 mph - N/A   Clear
10:35 PM 51.8 °F - 44.6 °F 76% 29.97 in 10.0 mi South 8.1 mph - N/A   Clear
10:55 PM 51.8 °F - 44.6 °F 76% 29.96 in 10.0 mi South 10.4 mph - N/A   Clear
11:00 PM 51.8 °F - 44.6 °F 76% 29.96 in 10.0 mi South 11.5 mph - N/A   Clear
11:15 PM 53.6 °F - 44.6 °F 72% 29.96 in 10.0 mi South 11.5 mph - N/A   Clear
11:20 PM 53.6 °F - 42.8 °F 67% 29.96 in 10.0 mi South 12.7 mph - N/A   Clear
11:35 PM 53.6 °F - 42.8 °F 67% 29.96 in 10.0 mi South 13.8 mph - N/A   Clear
11:40 PM 53.6 °F - 41.0 °F 62% 29.96 in 10.0 mi South 13.8 mph - N/A   Clear
11:55 PM 53.6 °F - 41.0 °F 62% 29.95 in 10.0 mi South 13.8 mph - N/A   Clear